EZY31A EHAM-LEIB

Flight info

Callsign EZY31A
Flight time N/A
Altitude 39000
Route LOPIK N852 LNO DCT SUTAL DCT GTQ DCT POGOL DCT LASAT DCT MOROK DCT GILIR DCT GEVEA DCT INCUS DCT BALSI DCT RETNO DCT TUPOX DCT MTG DCT DIVKO DCT VATIR N852 PIVUS Z237 SULID DCT DIMIB DCT POS
Aircraft A319/M-SDE3FGHIRWY/LB1

Departure

Time 2026-04-27 17:57
Airport Amsterdam Airport Schiphol (EHAM)

Arrival

Time N/A
Airport Ibiza Airport (LEIB)
Time Latitude Longitude Altitude Speed Heading
2026-04-27 17:30 52.30982 4.75358 -1 ft 0 kts 148°
2026-04-27 17:43 52.30997 4.75344 -1 ft 4 kts 153°
2026-04-27 17:43 52.31018 4.75322 -1 ft 4 kts 104°
2026-04-27 17:44 52.31018 4.75292 -1 ft 2 kts 70°
2026-04-27 17:44 52.31017 4.75290 -1 ft 0 kts 70°
2026-04-27 17:45 52.31017 4.75291 -1 ft 0 kts 70°
2026-04-27 17:45 52.31018 4.75293 -1 ft 0 kts 70°
2026-04-27 17:46 52.31018 4.75294 -1 ft 0 kts 70°
2026-04-27 17:47 52.31020 4.75297 -1 ft 1 kts 50°
2026-04-27 17:47 52.31030 4.75315 -1 ft 6 kts 49°
2026-04-27 17:47 52.31083 4.75441 -1 ft 12 kts 57°
2026-04-27 17:47 52.31154 4.75493 -1 ft 12 kts 359°
2026-04-27 17:48 52.31244 4.75486 -1 ft 13 kts 357°
2026-04-27 17:48 52.31340 4.75477 -1 ft 14 kts 355°
2026-04-27 17:48 52.31441 4.75464 -1 ft 15 kts 357°
2026-04-27 17:48 52.31508 4.75365 -1 ft 15 kts 270°
2026-04-27 17:49 52.31502 4.75190 -1 ft 16 kts 266°
2026-04-27 17:49 52.31496 4.75010 -1 ft 16 kts 266°
2026-04-27 17:49 52.31491 4.74825 -1 ft 16 kts 268°
2026-04-27 17:49 52.31483 4.74636 -1 ft 17 kts 265°
2026-04-27 17:50 52.31476 4.74444 -1 ft 17 kts 267°
2026-04-27 17:50 52.31643 4.74305 -1 ft 17 kts
2026-04-27 17:50 52.31765 4.74321 -1 ft 18 kts
2026-04-27 17:51 52.31894 4.74338 -1 ft 19 kts
2026-04-27 17:51 52.31994 4.74342 -1 ft 13 kts 356°
2026-04-27 17:51 52.32033 4.74248 -1 ft 11 kts 268°
2026-04-27 17:51 52.32031 4.74102 -1 ft 14 kts 272°
2026-04-27 17:52 52.32039 4.73890 -1 ft 24 kts 274°
2026-04-27 17:52 52.32052 4.73618 -1 ft 23 kts 274°
2026-04-27 17:52 52.32071 4.73388 -1 ft 17 kts 299°
2026-04-27 17:52 52.32159 4.73256 -1 ft 18 kts 320°
2026-04-27 17:53 52.32254 4.73126 -1 ft 18 kts 319°
2026-04-27 17:53 52.32351 4.72987 -1 ft 19 kts 319°
2026-04-27 17:53 52.32452 4.72845 -1 ft 20 kts 319°
2026-04-27 17:53 52.32557 4.72698 -1 ft 20 kts 319°
2026-04-27 17:54 52.32665 4.72544 -1 ft 21 kts 316°
2026-04-27 17:54 52.32762 4.72363 -1 ft 21 kts 311°
2026-04-27 17:54 52.32864 4.72179 -1 ft 22 kts 312°
2026-04-27 17:54 52.32966 4.71987 -1 ft 23 kts 311°
2026-04-27 17:55 52.33072 4.71792 -1 ft 23 kts 312°
2026-04-27 17:55 52.33144 4.71596 -1 ft 20 kts 273°
2026-04-27 17:55 52.33073 4.71415 -1 ft 20 kts 220°
2026-04-27 17:55 52.32968 4.71264 -1 ft 20 kts 221°
2026-04-27 17:56 52.32873 4.71118 -1 ft 18 kts 234°
2026-04-27 17:56 52.32864 4.70946 -2 ft 10 kts 279°
2026-04-27 17:56 52.32884 4.70884 -2 ft 6 kts 332°
2026-04-27 17:56 52.32928 4.70891 -2 ft 7 kts 10°
2026-04-27 17:57 52.33029 4.70907 -3 ft 40 kts
2026-04-27 17:57 52.33578 4.70960 0 ft 114 kts
2026-04-27 17:57 52.34570 4.71057 15 ft 168 kts
2026-04-27 17:57 52.35733 4.71164 706 ft 166 kts
2026-04-27 17:58 52.36890 4.71267 1461 ft 171 kts
2026-04-27 17:58 52.38107 4.71717 1851 ft 192 kts 34°
2026-04-27 17:58 52.38928 4.73529 2245 ft 214 kts 72°
2026-04-27 17:58 52.38844 4.76074 2654 ft 243 kts 112°
2026-04-27 17:59 52.37696 4.78221 3398 ft 261 kts 143°
2026-04-27 17:59 52.36114 4.79744 4374 ft 267 kts 153°
2026-04-27 17:59 52.34404 4.81020 5388 ft 272 kts 156°
2026-04-27 17:59 52.32650 4.82236 6391 ft 276 kts 156°
2026-04-27 18:00 52.30869 4.83489 7343 ft 281 kts 156°
2026-04-27 18:00 52.29075 4.84799 8315 ft 283 kts 156°
2026-04-27 18:00 52.27278 4.86154 9315 ft 286 kts 156°
2026-04-27 18:00 52.25475 4.87541 10300 ft 288 kts 156°
2026-04-27 18:01 52.23612 4.88992 10791 ft 308 kts 156°
2026-04-27 18:01 52.21601 4.90565 11119 ft 332 kts 156°
2026-04-27 18:01 52.19479 4.92234 11711 ft 343 kts 155°
2026-04-27 18:01 52.17304 4.93955 12467 ft 350 kts 155°
2026-04-27 18:02 52.15098 4.95701 13230 ft 356 kts 155°
2026-04-27 18:02 52.12849 4.97474 13992 ft 361 kts 155°
2026-04-27 18:02 52.10571 4.99265 14674 ft 366 kts 155°
2026-04-27 18:02 52.08292 5.01052 15377 ft 370 kts 156°
2026-04-27 18:03 52.05961 5.02873 16074 ft 374 kts 156°
2026-04-27 18:03 52.03605 5.04713 16773 ft 378 kts 156°
2026-04-27 18:03 52.01225 5.06573 17463 ft 382 kts 157°
2026-04-27 18:03 51.98818 5.08446 18153 ft 385 kts 157°
2026-04-27 18:04 51.96391 5.10332 18793 ft 389 kts 157°
2026-04-27 18:04 51.93941 5.12223 19395 ft 392 kts 159°
2026-04-27 18:04 51.91371 5.13684 20001 ft 392 kts 168°
2026-04-27 18:04 51.88732 5.14851 20618 ft 394 kts 168°
2026-04-27 18:05 51.86078 5.16025 21227 ft 397 kts 168°
2026-04-27 18:05 51.83401 5.17210 21838 ft 401 kts 168°
2026-04-27 18:05 51.80702 5.18406 22426 ft 404 kts 168°
2026-04-27 18:05 51.77980 5.19611 22996 ft 407 kts 168°
2026-04-27 18:06 51.75243 5.20819 23549 ft 410 kts 168°
2026-04-27 18:06 51.72480 5.22036 24047 ft 413 kts 168°
2026-04-27 18:06 51.69700 5.23261 24496 ft 416 kts 168°
2026-04-27 18:06 51.66902 5.24493 24949 ft 418 kts 169°
2026-04-27 18:07 51.64087 5.25730 25386 ft 421 kts 169°
2026-04-27 18:07 51.61254 5.26976 25825 ft 423 kts 169°
2026-04-27 18:07 51.58409 5.28223 26269 ft 426 kts 169°
2026-04-27 18:07 51.55540 5.29478 26706 ft 428 kts 169°
2026-04-27 18:08 51.52656 5.30739 27131 ft 431 kts 169°
2026-04-27 18:08 51.49756 5.32004 27574 ft 433 kts 170°
2026-04-27 18:08 51.46845 5.33273 28005 ft 435 kts 170°
2026-04-27 18:08 51.43948 5.34538 28439 ft 438 kts 170°
2026-04-27 18:09 51.41003 5.35822 28838 ft 440 kts 171°
2026-04-27 18:09 51.38036 5.37114 29240 ft 443 kts 171°
2026-04-27 18:09 51.35058 5.38412 29632 ft 445 kts 171°
2026-04-27 18:09 51.32062 5.39712 30008 ft 447 kts 172°
2026-04-27 18:10 51.29051 5.41012 30356 ft 449 kts 172°
2026-04-27 18:10 51.26023 5.42318 30665 ft 451 kts 172°
2026-04-27 18:10 51.22981 5.43628 30964 ft 454 kts 172°
2026-04-27 18:10 51.19924 5.44939 31252 ft 456 kts 172°
2026-04-27 18:11 51.16867 5.46252 31650 ft 455 kts 172°
2026-04-27 18:11 51.13810 5.47570 32063 ft 455 kts 172°
2026-04-27 18:11 51.10758 5.48884 32465 ft 454 kts 172°
2026-04-27 18:11 51.07707 5.50198 32868 ft 454 kts 172°
2026-04-27 18:12 51.04662 5.51512 33273 ft 453 kts 172°
2026-04-27 18:12 51.01618 5.52817 33689 ft 453 kts 172°
2026-04-27 18:12 50.98573 5.54120 34087 ft 453 kts 172°
2026-04-27 18:12 50.95534 5.55416 34439 ft 453 kts 172°
2026-04-27 18:13 50.92529 5.56690 34761 ft 453 kts 172°
2026-04-27 18:13 50.89446 5.57993 35070 ft 454 kts 172°
2026-04-27 18:13 50.86436 5.59265 35365 ft 454 kts 172°
2026-04-27 18:13 50.83376 5.60561 35638 ft 455 kts 172°
2026-04-27 18:14 50.80314 5.61860 35916 ft 456 kts 171°
2026-04-27 18:14 50.77249 5.63157 36189 ft 457 kts 171°
2026-04-27 18:14 50.74174 5.64456 36450 ft 457 kts 171°
2026-04-27 18:14 50.71096 5.65755 36703 ft 458 kts 171°
2026-04-27 18:15 50.68017 5.67052 36942 ft 459 kts 171°
2026-04-27 18:15 50.64931 5.68348 37139 ft 460 kts 171°
2026-04-27 18:15 50.58751 5.70982 37188 ft 462 kts 167°
2026-04-27 18:16 50.52722 5.74683 37179 ft 465 kts 163°
2026-04-27 18:16 50.46724 5.78536 37172 ft 466 kts 163°
2026-04-27 18:17 50.40742 5.82446 37163 ft 466 kts 162°
2026-04-27 18:17 50.34764 5.86344 37159 ft 465 kts 163°
2026-04-27 18:18 50.31768 5.88281 37386 ft 466 kts 163°
2026-04-27 18:18 50.28769 5.90211 37658 ft 465 kts 163°
2026-04-27 18:18 50.25777 5.92131 37920 ft 466 kts 162°
2026-04-27 18:18 50.22814 5.94028 38172 ft 466 kts 162°
2026-04-27 18:19 50.19773 5.95974 38428 ft 466 kts 162°
2026-04-27 18:19 50.16777 5.97892 38666 ft 466 kts 162°
2026-04-27 18:19 50.13814 5.99788 38867 ft 466 kts 162°
2026-04-27 18:19 50.10775 6.01735 39048 ft 467 kts 162°
2026-04-27 18:20 50.04761 6.05576 39145 ft 467 kts 162°
2026-04-27 18:20 49.98789 6.09370 39141 ft 466 kts 162°
2026-04-27 18:21 49.92785 6.13176 39137 ft 466 kts 162°
2026-04-27 18:21 49.86782 6.16982 39138 ft 466 kts 162°
2026-04-27 18:22 49.80781 6.20775 39138 ft 465 kts 162°
2026-04-27 18:22 49.74778 6.24554 39140 ft 466 kts 162°
2026-04-27 18:23 49.68774 6.28322 39143 ft 466 kts 162°
2026-04-27 18:23 49.62814 6.32049 39146 ft 465 kts 162°
2026-04-27 18:24 49.56814 6.35805 39147 ft 465 kts 162°
2026-04-27 18:24 49.50812 6.39546 39150 ft 465 kts 162°
2026-04-27 18:25 49.44818 6.43263 39154 ft 464 kts 162°
2026-04-27 18:25 49.38832 6.46964 39159 ft 464 kts 163°
2026-04-27 18:26 49.32844 6.50655 39150 ft 463 kts 163°
2026-04-27 18:26 49.26866 6.54344 39148 ft 463 kts 162°
2026-04-27 18:27 49.20890 6.58037 39153 ft 463 kts 163°
2026-04-27 18:27 49.14919 6.61700 39140 ft 463 kts 163°
2026-04-27 18:28 49.08939 6.65346 39135 ft 463 kts 163°
2026-04-27 18:28 49.02963 6.68983 39143 ft 463 kts 163°
2026-04-27 18:29 48.96819 6.71340 39134 ft 450 kts 180°
2026-04-27 18:29 48.91653 6.71345 39132 ft 445 kts 187°
2026-04-27 18:30 48.84451 6.71046 39126 ft 446 kts 187°
2026-04-27 18:30 48.78248 6.70807 39127 ft 446 kts 186°
2026-04-27 18:31 48.73093 6.70615 39126 ft 446 kts 186°
2026-04-27 18:31 48.66881 6.70382 39126 ft 446 kts 186°
2026-04-27 18:32 48.60670 6.70147 39119 ft 447 kts 186°
2026-04-27 18:32 48.54455 6.69898 39121 ft 447 kts 186°
2026-04-27 18:33 48.48230 6.69652 39118 ft 447 kts 186°
2026-04-27 18:33 48.42006 6.69408 39119 ft 447 kts 186°
2026-04-27 18:34 48.35774 6.69172 39118 ft 448 kts 186°
2026-04-27 18:34 48.29548 6.68942 39116 ft 448 kts 186°
2026-04-27 18:35 48.23356 6.68718 39117 ft 448 kts 186°
2026-04-27 18:35 48.17126 6.68475 39115 ft 448 kts 187°
2026-04-27 18:36 48.10896 6.68230 39117 ft 448 kts 186°
2026-04-27 18:36 48.04671 6.67988 39114 ft 447 kts 187°
2026-04-27 18:37 47.98447 6.67744 39110 ft 447 kts 187°
2026-04-27 18:37 47.92226 6.67513 39108 ft 447 kts 187°
2026-04-27 18:38 47.86005 6.67284 39101 ft 447 kts 187°
2026-04-27 18:38 47.79787 6.67048 39114 ft 446 kts 187°
2026-04-27 18:39 47.73617 6.66807 39112 ft 446 kts 187°
2026-04-27 18:39 47.67408 6.66575 39114 ft 446 kts 187°
2026-04-27 18:40 47.61198 6.66354 39117 ft 446 kts 187°
2026-04-27 18:40 47.54994 6.66129 39119 ft 446 kts 187°
2026-04-27 18:41 47.48789 6.65899 39118 ft 446 kts 187°
2026-04-27 18:41 47.42649 6.65185 39115 ft 437 kts 199°
2026-04-27 18:42 47.37994 6.62656 39111 ft 425 kts 214°
2026-04-27 18:42 47.34771 6.59409 39110 ft 416 kts 225°
2026-04-27 18:42 47.32575 6.56625 39106 ft 416 kts 225°
2026-04-27 18:43 47.28163 6.51088 39110 ft 417 kts 225°
2026-04-27 18:43 47.23739 6.45574 39113 ft 417 kts 225°
2026-04-27 18:44 47.19318 6.40053 39108 ft 417 kts 225°
2026-04-27 18:44 47.14889 6.34539 39104 ft 417 kts 225°
2026-04-27 18:45 47.10488 6.29079 39100 ft 417 kts 225°
2026-04-27 18:45 47.05486 6.24645 39093 ft 429 kts 205°
2026-04-27 18:46 47.02588 6.23485 39093 ft 436 kts 194°
2026-04-27 18:46 46.99555 6.22998 39095 ft 440 kts 191°
2026-04-27 18:46 46.93457 6.22197 39094 ft 440 kts 191°
2026-04-27 18:47 46.87356 6.21379 39098 ft 440 kts 191°
2026-04-27 18:47 46.81244 6.20563 39104 ft 441 kts 191°
2026-04-27 18:48 46.75135 6.19755 39103 ft 441 kts 191°
2026-04-27 18:48 46.69030 6.18953 39101 ft 441 kts 191°
2026-04-27 18:49 46.62922 6.18148 39104 ft 441 kts 191°
2026-04-27 18:49 46.56809 6.17344 39100 ft 441 kts 191°
2026-04-27 18:50 46.50746 6.16542 39097 ft 441 kts 190°
2026-04-27 18:50 46.44639 6.15734 39094 ft 440 kts 190°
2026-04-27 18:51 46.38531 6.14937 39089 ft 441 kts 190°
2026-04-27 18:51 46.32421 6.14142 39087 ft 441 kts 190°
2026-04-27 18:52 46.26310 6.13348 39088 ft 441 kts 190°
2026-04-27 18:53 46.17228 6.11574 39090 ft 438 kts 194°
2026-04-27 18:53 46.11229 6.10095 39087 ft 438 kts 194°
2026-04-27 18:54 46.05204 6.08688 39080 ft 439 kts 194°
2026-04-27 18:54 45.99197 6.07373 39088 ft 439 kts 193°
2026-04-27 18:55 45.93160 6.06073 39084 ft 439 kts 193°
2026-04-27 18:55 45.87123 6.04746 39085 ft 439 kts 193°
2026-04-27 18:56 45.81071 6.03407 39085 ft 440 kts 193°
2026-04-27 18:56 45.75030 6.02071 39062 ft 440 kts 193°
2026-04-27 18:57 45.68976 6.00732 39057 ft 440 kts 193°
2026-04-27 18:57 45.62928 5.99392 39060 ft 440 kts 193°
2026-04-27 18:58 45.56876 5.98067 39060 ft 440 kts 193°
2026-04-27 18:58 45.50815 5.96736 39062 ft 440 kts 193°
2026-04-27 18:59 45.44776 5.95306 39070 ft 439 kts 195°
2026-04-27 18:59 45.38846 5.93457 39073 ft 438 kts 198°
2026-04-27 19:00 45.32914 5.91467 39083 ft 438 kts 198°
2026-04-27 19:00 45.26965 5.89559 39088 ft 439 kts 197°
2026-04-27 19:01 45.20986 5.87714 39102 ft 440 kts 197°
2026-04-27 19:01 45.15000 5.85882 39103 ft 440 kts 197°
2026-04-27 19:02 45.09023 5.84029 39111 ft 440 kts 197°
2026-04-27 19:02 45.03048 5.82179 39111 ft 440 kts 197°
2026-04-27 19:03 44.97062 5.80338 39114 ft 440 kts 197°
2026-04-27 19:03 44.91074 5.78496 39113 ft 440 kts 197°
2026-04-27 19:04 44.85083 5.76663 39114 ft 441 kts 197°
2026-04-27 19:04 44.79120 5.74840 39117 ft 441 kts 197°
2026-04-27 19:05 44.73127 5.73005 39115 ft 441 kts 196°
2026-04-27 19:05 44.67124 5.71173 39113 ft 441 kts 196°
2026-04-27 19:06 44.62435 5.69751 39131 ft 448 kts 196°
2026-04-27 19:06 44.56282 5.67943 39307 ft 456 kts 195°
2026-04-27 19:06 44.53157 5.67091 39445 ft 458 kts 194°
2026-04-27 19:07 44.50015 5.66291 39605 ft 460 kts 194°
2026-04-27 19:07 44.46855 5.65532 39795 ft 461 kts 193°
2026-04-27 19:07 44.43687 5.64808 40034 ft 460 kts 193°
2026-04-27 19:07 44.40520 5.64137 40364 ft 462 kts 192°
2026-04-27 19:08 44.37326 5.63533 40712 ft 462 kts 191°
2026-04-27 19:08 44.34133 5.63009 41063 ft 462 kts 190°
2026-04-27 19:08 44.30931 5.62551 41426 ft 462 kts 189°
2026-04-27 19:08 44.27734 5.62155 41790 ft 461 kts 188°
2026-04-27 19:09 44.24545 5.61827 42169 ft 459 kts 187°
2026-04-27 19:09 44.21404 5.61536 43153 ft 427 kts 189°
2026-04-27 19:09 44.18875 5.61126 45405 ft 377 kts 192°
2026-04-27 19:09 44.16460 5.60640 47135 ft 327 kts 193°
2026-04-27 19:10 44.14163 5.60159 46510 ft 350 kts 193°
2026-04-27 19:10 44.12550 5.59782 45489 ft 379 kts 195°
2026-04-27 19:10 44.09848 5.59016 44306 ft 409 kts 196°
2026-04-27 19:10 44.08008 5.58451 43532 ft 410 kts 197°